Regional Weather Roundup
Issued by NWS

Home | Current Version | Previous Version | Text Only | Print | Product List | Glossary On
Versions: 1 2 3 4 5 6 7 8 9 10 11 12 13 14 15 16 17 18 19 20 21 22 23 24 25 26 27 28 29 30 31 32 33 34 35 36 37 38 39 40 41 42 43 44 45 46 47 48 49 50
000
ASUS43 KDMX 171706
RWRIA

WEATHER ROUNDUP FOR IOWA
NATIONAL WEATHER SERVICE DES MOINES IA
1200 PM CDT SAT AUG 17 2019

NOTE: "FAIR" INDICATES FEW OR NO CLOUDS BELOW 12,000 FEET WITH NO
SIGNIFICANT WEATHER AND/OR OBSTRUCTIONS TO VISIBILITY.

* - THESE STATIONS ARE NOT NWS STATIONS...THUS NOT UNDER NWS
QUALITY CONTROL.  THEY ALSO DO NOT REPORT WEATHER SUCH
AS PRECIPITATION OR FOG.

IAZ001>003-012>014-020>022-031>034-043>046-171800-
   NORTHWEST IOWA

CITY           SKY/WX    TMP DP  RH WIND       PRES   REMARKS
CARROLL *      CLOUDY    73  70  88 S5        29.83R
CHEROKEE *     CLOUDY    74  70  89 S6        29.82S
DENISON *      CLOUDY    75  72  88 S7        29.84R
LE MARS *      CLOUDY    77  72  83 SE7G14    29.80S
SHELDON *      MOSUNNY   79  70  73 S10       29.79F HX  81
SIOUX CITY     PTSUNNY   76  70  82 S8        29.80S HAZE
SPENCER        MOSUNNY   80  68  66 SE8       29.82S HX  83
STORM LAKE *   PTSUNNY   72  70  94 S6        29.81R
$$

IAZ055>058-069>071-079>083-090>094-171800-
   SOUTHWEST IOWA

CITY           SKY/WX    TMP DP  RH WIND       PRES   REMARKS
ATLANTIC *     SUNNY     77  70  78 SW16      29.82F
AUDUBON *      PTSUNNY   79  72  78 SW9       29.85R HX  82
CLARINDA *     MOSUNNY   77  72  83 S12G18    29.87S
COUNCIL BLFS * MOSUNNY   77  72  83 S8G14     29.81S
CRESTON *      SUNNY     77  66  69 SW10G17   29.87S
HARLAN  *      MOSUNNY   77  70  78 S10       29.83S
LAMONI         SUNNY     75  66  73 S12       29.89R
RED OAK *      SUNNY     79  70  73 S13       29.84S HX  81
SHENANDOAH *   MOSUNNY   79  70  73 S12       29.84R HX  81
$$

IAZ047>049-059>061-072>074-084-171800-
   CENTRAL IOWA

CITY           SKY/WX    TMP DP  RH WIND       PRES   REMARKS
AMES           CLOUDY    78  68  71 CALM      29.84R HX  80
ANKENY *       SUNNY     81  66  61 VRB7      29.85R HX  83
BOONE *        CLOUDY    75  72  88 VRB5      29.84R
CHARITON *     SUNNY     75  70  83 S10G20    29.88R
DES MOINES     PTSUNNY   80  66  62 S8        29.84R HX  82
GRINNELL*      SUNNY     79  65  62 SE5       29.86S HX  80
KNOXVILLE *    MOSUNNY   75  68  78 S15       29.86R
MARSHALLTOWN   SUNNY     76  68  76 SE6       29.84S
NEWTON *       SUNNY     79  68  69 S6        29.84S HX  81
PELLA *        SUNNY     77  65  66 S9        29.87R
PERRY *        FAIR      77  70  77 W7        29.85R
$$

IAZ004>006-015-016-023>025-035-036-171800-
   NORTH CENTRAL IOWA

CITY           SKY/WX    TMP DP  RH WIND       PRES   REMARKS
ALGONA *       SUNNY     77  68  73 SE12      29.82S
CLARION *      SUNNY     77  68  73 E9        29.84S
ESTHERVILLE    SUNNY     75  66  73 E7        29.82F
FORT DODGE *   PTSUNNY   76  70  82 SE6       29.84R
MASON CITY     SUNNY     76  61  59 SE8       29.85F
FOREST CITY *  FAIR      77  63  61 SE8       29.85F
IOWA FALLS *     N/A     75  63  64 SE10      29.86S
$$

IAZ007>011-017>019-026>030-037>042-050>054-066-171800-
   NORTHEAST IOWA

CITY           SKY/WX    TMP DP  RH WIND       PRES   REMARKS
CEDAR RAPIDS   FAIR      77  67  71 NE8       29.85S
CHARLES CITY * FAIR      75  64  69 SE10      29.86F
CLINTON *      FAIR      76  68  76 NE10      29.87S
DECORAH *      FAIR      73  63  68 VRB6      29.88S
DUBUQUE        FAIR      74  66  76 E6        29.89F
MONTICELLO *     N/A    N/A N/A N/A MISG        N/A
OELWEIN *      SUNNY     72  68  88 SE13      29.88F
WATERLOO       FAIR      78  64  61 SE14      29.85S HX  80
$$

IAZ064-065-067-068-078-171800-
   EAST CENTRAL IOWA

CITY           SKY/WX    TMP DP  RH WIND       PRES   REMARKS
DAVENPORT      FAIR      79  68  69 N8        29.86F HX  81
IOWA CITY      FAIR      82  66  58 NE6       29.85S HX  84
MT. PLEASANT * MOSUNNY   81  70  69 S9        29.90R HX  84
MUSCATINE *    FAIR      81  70  69 CALM      29.86R HX  84
QUAD CITIES    FAIR      80  68  66 NE5       29.85S HX  83
$$

IAZ062-063-075>077-085>089-095>099-171800-
   SOUTHEAST IOWA

CITY           SKY/WX    TMP DP  RH WIND       PRES   REMARKS
BURLINGTON     CLOUDY    77  68  73 S7        29.92R
FAIRFIELD *    MOSUNNY   77  68  73 VRB6G12   29.89R
FORT MADISON * PTSUNNY   79  70  73 S8        29.93R HX  81
KEOKUK *       PTSUNNY   75  68  78 VRB5      29.92R
OSKALOOSA *    FAIR      78  66  67 S8        29.88R HX  80
CENTERVILLE *  FAIR      73  68  83 S12       29.91F
OTTUMWA        MOSUNNY   79  67  66 S10       29.88R HX  81
WASHINGTON *   SUNNY     81  66  61 S6        29.85R HX  83
$$

ABBREVIATIONS USED IN REMARKS
   TC - TEMPERATURES IN CELSIUS
  WCI - WIND CHILL INDEX
   HX - HEAT INDEX
  VSB - VISIBILITY
$$




USA.gov is the U.S. government's official web portal to all federal, state and local government web resources and services.